Printer-friendly version

IAU Minor Planet Center

Minor Planet Center

MPEC 1997-V04: 1997 UZ10

The following Minor Planet Electronic Circular may be linked-to from your own Web pages, but must not otherwise be redistributed electronically.


Read MPEC 1997-V03 Read MPEC 1997-V05


M.P.E.C. 1997-V04                                Issued 1997 Nov. 1, 21:14 UT

     The Minor Planet Electronic Circulars contain information on unusual
         minor planets and routine data on comets.  They are published
   on behalf of Commission 20 of the International Astronomical Union by the
          Minor Planet Center, Smithsonian Astrophysical Observatory,
                          Cambridge, MA 02138, U.S.A.

             BMARSDEN@CFA.HARVARD.EDU or GWILLIAMS@CFA.HARVARD.EDU
                   URL http://cfa-www.harvard.edu/iau/mpc.html

                                   1997 UZ10

Observations:
     J97U10Z* C1997 10 29.24841 02 38 06.31 +08 57 15.2          19.9        704
     J97U10Z  C1997 10 29.26893 02 38 09.84 +09 00 55.4          20.3        704
     J97U10Z  C1997 10 29.28918 02 38 13.37 +09 04 26.3          20.2        704
     J97U10Z  C1997 10 29.30950 02 38 16.74 +09 08 03.6          20.4        704
     J97U10Z  C1997 10 29.33003 02 38 20.11 +09 11 40.6          19.9        704
     J97U10Z  C1997 10 29.93529 02 40 22.74 +10 58 36.9          18.8 V      046
     J97U10Z  C1997 10 29.93683 02 40 23.13 +10 58 56.7                      046
     J97U10Z  C1997 10 29.93844 02 40 23.50 +10 59 12.9                      046
     J97U10Z  C1997 10 29.93958 02 40 23.69 +10 59 23.6                      046
     J97U10Z  C1997 10 29.94060 02 40 23.82 +10 59 35.1                      046
     J97U10Z  C1997 10 31.20277 02 44 40.29 +14 43 12.9          18.3        784
     J97U10Z  C1997 10 31.21267 02 44 42.03 +14 44 58.3          18.2        784
     J97U10Z  C1997 10 31.21545 02 44 42.56 +14 45 29.2          18.1        784
     J97U10Z  C1997 10 31.21840 02 44 43.10 +14 45 58.8          18.2        784
     J97U10Z  C1997 10 31.31138 02 45 02.69 +15 02 31.8          19.5 V      673
     J97U10Z  C1997 10 31.31583 02 45 03.54 +15 03 19.4                      673
     J97U10Z  C1997 10 31.32590 02 45 05.30 +15 05 06.9                      673
     J97U10Z  C1997 10 31.93823 02 47 12.05 +16 52 19.4          19.1 V      557
     J97U10Z  C1997 10 31.93900 02 47 12.20 +16 52 29.0                      557
     J97U10Z  C1997 10 31.94052 02 47 12.42 +16 52 44.9                      557
     J97U10Z  C1997 10 31.94435 02 47 13.17 +16 53 26.8                      557
     J97U10Z  C1997 11 01.23853 02 48 15.66 +17 45 05.0          19.0        704
     J97U10Z  C1997 11 01.23998 02 48 16.01 +17 45 23.6          19.0        704
     J97U10Z  C1997 11 01.24131 02 48 16.01 +17 45 36.7                      704
     J97U10Z  C1997 11 01.24275 02 48 16.35 +17 45 50.8                      704
     J97U10Z  C1997 11 01.24408 02 48 16.51 +17 46 03.9                      704
     J97U10Z  C1997 11 01.24553 02 48 17.00 +17 46 18.0                      704
     J97U10Z  C1997 11 01.24686 02 48 17.01 +17 46 35.7                      704
     J97U10Z  C1997 11 01.24964 02 48 17.66 +17 47 02.8          19.4        704
     J97U10Z  C1997 11 01.25108 02 48 17.54 +17 47 19.1                      704
     J97U10Z  C1997 11 01.32464 02 48 31.99 +18 00 06.5          19.9 V      673
     J97U10Z  C1997 11 01.32753 02 48 32.41 +18 00 36.6                      673

Observer details:
046 Klet.  Observers M. Tichy, Z. Moravec.  Measurer M. Tichy.  0.57-m f/5.2
    reflector + CCD.
557 Ondrejov.  Observer P. Pravec.  0.65-m f/3.6 reflector + CCD.
673 Table Mountain Observatory, Wrightwood.  Observer D. L. Rabinowitz.  0.6-m
    reflector + CCD.
704 Lincoln Laboratory ETS, New Mexico.  Observers M. Blythe, F. Shelly,
    M. Bezpalko.  Measurers J. Stuart, H. Viggh, J. Sharma.  1.0-m f/2.15
    reflector + CCD.
784 Stull Observatory, Alfred University.  Observers D. R. DeGraff,
    A. M. Robbins.  0.81-m f/4 reflector + CCD.

Orbital elements:
1997 UZ10
Epoch 1997 Oct. 19.0 TT = JDT 2450740.5                 Williams
M 358.00807              (2000.0)            P               Q
n   0.17394555     Peri.  358.68494     +0.79259131     -0.59257642
a   3.1782923      Node    38.85073     +0.56150826     +0.61743756
e   0.6536894      Incl.   13.24369     +0.23771304     +0.51732393
P   5.67           H   23.0           G   0.15
From 31 observations 1997 Oct. 29-Nov. 1.

Ephemeris:
1997 UZ10                a,e,i = 3.18, 0.65, 13                  q = 1.1007
Date    TT    R. A. (2000) Decl.     Delta      r     Elong.  Phase     V
1997 10 29    02 37.25   +08 13.8    0.108    1.101   172.2     7.1    18.9
1997 10 31    02 43.97   +14 07.9    0.108    1.101   174.5     5.0    18.8
1997 11 02    02 50.88   +19 57.0    0.110    1.101   172.6     6.7    18.9
1997 11 04    02 57.97   +25 31.3    0.113    1.102   168.7    10.2    19.1
1997 11 06    03 05.21   +30 42.7    0.117    1.104   164.5    13.9    19.3
1997 11 08    03 12.55   +35 26.2    0.122    1.106   160.6    17.3    19.6
1997 11 10    03 19.96   +39 39.5    0.128    1.110   157.1    20.4    19.8
1997 11 12    03 27.38   +43 22.3    0.135    1.113   154.0    23.0    20.0
1997 11 14    03 34.76   +46 36.2    0.143    1.117   151.3    25.1    20.2
1997 11 16    03 42.03   +49 23.2    0.152    1.122   149.1    26.9    20.4
1997 11 18    03 49.15   +51 46.0    0.161    1.128   147.3    28.3    20.6
1997 11 20    03 56.05   +53 47.3    0.171    1.134   145.8    29.4    20.7
1997 11 22    04 02.70   +55 29.6    0.181    1.140   144.5    30.2    20.9
1997 11 24    04 09.07   +56 55.2    0.192    1.147   143.5    30.8    21.0
1997 11 26    04 15.11   +58 06.2    0.203    1.155   142.8    31.1    21.2
1997 11 28    04 20.83   +59 04.4    0.214    1.163   142.2    31.3    21.3
1997 11 30    04 26.22   +59 51.4    0.225    1.172   141.8    31.4    21.4
1997 12 02    04 31.28   +60 28.6    0.237    1.181   141.5    31.4    21.6
1997 12 04    04 36.02   +60 57.2    0.249    1.190   141.3    31.2    21.7
1997 12 06    04 40.46   +61 18.2    0.262    1.200   141.1    31.0    21.8
1997 12 08    04 44.63   +61 32.5    0.274    1.211   141.1    30.7    21.9

Gareth V. Williams           (C) Copyright 1997 MPC           M.P.E.C. 1997-V04

Read MPEC 1997-V03 Read MPEC 1997-V05


Our Web policy. Index to the CBAT/MPC/ICQ pages.


Valid HTML 4.01!